When you browse on this site, cookies collect data to enhance your experience and personalize the content and advertising you see.
Visit our Privacy Policy to learn more. By continuing to use the site, you agree to this use of cookies and data.

Stündliche Wetter Waly

Heute, 9 Juli, Donnerstag

Zeit Temperatur Niederschläge Wind Luftdruck Luftfeuchtigkeit
00:00 +9°C° 0 mm 2 m/S 749 mmHg 93%
01:00 +10°C° 0 mm 1 m/S 749 mmHg 94%
02:00 +10°C° 0 mm 1 m/S 749 mmHg 94%
03:00 +9°C° 0 mm 1 m/S 749 mmHg 94%
04:00 +9°C° 0 mm 1 m/S 749 mmHg 93%
05:00 +10°C° 0 mm 2 m/S 749 mmHg 88%
06:00 +13°C° 0 mm 2 m/S 749 mmHg 82%
07:00 +14°C° 0 mm 3 m/S 750 mmHg 76%
08:00 +16°C° 0 mm 3 m/S 750 mmHg 70%
09:00 +17°C° 0 mm 3 m/S 750 mmHg 65%
10:00 +18°C° 0 mm 3 m/S 750 mmHg 59%
11:00 +19°C° 0.2 mm 3 m/S 750 mmHg 59%
12:00 +19°C° 0.2 mm 4 m/S 750 mmHg 60%
13:00 +20°C° 0.2 mm 4 m/S 750 mmHg 60%
14:00 +20°C° 0.3 mm 4 m/S 749 mmHg 63%
15:00 +19°C° 0.3 mm 3 m/S 749 mmHg 67%
16:00 +19°C° 0.3 mm 3 m/S 749 mmHg 71%
17:00 +18°C° 0.3 mm 3 m/S 748 mmHg 76%
18:00 +17°C° 0.3 mm 3 m/S 748 mmHg 81%
19:00 +16°C° 0.3 mm 3 m/S 747 mmHg 86%
20:00 +16°C° 0.4 mm 3 m/S 747 mmHg 89%
21:00 +14°C° 0.4 mm 3 m/S 747 mmHg 92%
22:00 +14°C° 0.4 mm 3 m/S 746 mmHg 95%
23:00 +14°C° 0.3 mm 4 m/S 746 mmHg 95%

Morgen, 10 Juli, Freitag

Zeit Temperatur Niederschläge Wind Luftdruck Luftfeuchtigkeit
00:00 +15°C° 0.3 mm 4 m/S 745 mmHg 95%
01:00 +15°C° 0.3 mm 5 m/S 745 mmHg 95%
02:00 +15°C° 0.2 mm 5 m/S 745 mmHg 95%
03:00 +15°C° 0.2 mm 5 m/S 744 mmHg 95%
04:00 +16°C° 0.2 mm 5 m/S 744 mmHg 96%
05:00 +16°C° 0 mm 5 m/S 744 mmHg 94%
06:00 +16°C° 0 mm 5 m/S 745 mmHg 92%
07:00 +17°C° 0 mm 5 m/S 745 mmHg 90%
08:00 +19°C° 0.1 mm 5 m/S 745 mmHg 85%
09:00 +20°C° 0.1 mm 5 m/S 745 mmHg 81%
10:00 +21°C° 0.1 mm 5 m/S 746 mmHg 76%
11:00 +21°C° 0.1 mm 5 m/S 746 mmHg 73%
12:00 +22°C° 0.1 mm 4 m/S 746 mmHg 70%
13:00 +23°C° 0.1 mm 4 m/S 745 mmHg 67%
14:00 +24°C° 0.2 mm 3 m/S 745 mmHg 70%
15:00 +22°C° 0.2 mm 3 m/S 745 mmHg 73%
16:00 +23°C° 0.2 mm 2 m/S 745 mmHg 77%
17:00 +21°C° 0.6 mm 2 m/S 744 mmHg 81%
18:00 +21°C° 0.6 mm 2 m/S 744 mmHg 85%
19:00 +21°C° 0.6 mm 3 m/S 744 mmHg 89%
20:00 +20°C° 0.6 mm 3 m/S 744 mmHg 91%
21:00 +19°C° 0.6 mm 3 m/S 744 mmHg 93%
22:00 +19°C° 0.6 mm 3 m/S 744 mmHg 95%
23:00 +18°C° 0.1 mm 4 m/S 745 mmHg 95%

übermorgen, 11 Juli, Samstag

Zeit Temperatur Niederschläge Wind Luftdruck Luftfeuchtigkeit
00:00 +18°C° 0.1 mm 4 m/S 745 mmHg 95%
01:00 +17°C° 0.1 mm 4 m/S 746 mmHg 96%
02:00 +15°C° 0 mm 4 m/S 746 mmHg 96%
03:00 +14°C° 0 mm 4 m/S 747 mmHg 95%
04:00 +14°C° 0 mm 3 m/S 748 mmHg 95%
05:00 +14°C° 0 mm 3 m/S 748 mmHg 91%
06:00 +14°C° 0 mm 3 m/S 749 mmHg 87%
07:00 +16°C° 0 mm 3 m/S 749 mmHg 83%
08:00 +16°C° 0 mm 3 m/S 750 mmHg 78%
09:00 +17°C° 0 mm 3 m/S 751 mmHg 73%
10:00 +18°C° 0 mm 3 m/S 751 mmHg 67%
11:00 +18°C° 0.1 mm 2 m/S 752 mmHg 67%
12:00 +18°C° 0.1 mm 2 m/S 752 mmHg 67%
13:00 +18°C° 0.1 mm 2 m/S 752 mmHg 66%
14:00 +18°C° 0.1 mm 2 m/S 752 mmHg 66%
15:00 +18°C° 0.1 mm 2 m/S 752 mmHg 65%
16:00 +18°C° 0.1 mm 2 m/S 752 mmHg 65%
17:00 +17°C° 0.1 mm 2 m/S 753 mmHg 70%
18:00 +16°C° 0.1 mm 2 m/S 753 mmHg 76%
19:00 +16°C° 0.1 mm 1 m/S 753 mmHg 81%
20:00 +15°C° 0.1 mm 1 m/S 753 mmHg 83%
21:00 +14°C° 0.1 mm 1 m/S 753 mmHg 86%
22:00 +13°C° 0.1 mm 1 m/S 754 mmHg 88%
23:00 +13°C° 0 mm 1 m/S 753 mmHg 90%

12 Juli, Sonntag

Zeit Temperatur Niederschläge Wind Luftdruck Luftfeuchtigkeit
00:00 +12°C° 0 mm 1 m/S 753 mmHg 91%
01:00 +11°C° 0 mm 1 m/S 753 mmHg 93%
02:00 +11°C° 0 mm 1 m/S 753 mmHg 92%
03:00 +11°C° 0 mm 1 m/S 753 mmHg 91%
04:00 +10°C° 0 mm 2 m/S 753 mmHg 90%
05:00 +12°C° 0 mm 2 m/S 753 mmHg 85%
06:00 +13°C° 0 mm 2 m/S 753 mmHg 81%
07:00 +13°C° 0 mm 3 m/S 754 mmHg 77%
08:00 +14°C° 0 mm 3 m/S 754 mmHg 70%
09:00 +17°C° 0 mm 3 m/S 754 mmHg 63%
10:00 +18°C° 0 mm 3 m/S 754 mmHg 57%
11:00 +18°C° 0 mm 3 m/S 754 mmHg 56%
12:00 +18°C° 0 mm 3 m/S 754 mmHg 56%
13:00 +19°C° 0 mm 3 m/S 754 mmHg 55%
14:00 +18°C° 0.1 mm 3 m/S 754 mmHg 59%
15:00 +18°C° 0.1 mm 3 m/S 753 mmHg 63%
16:00 +17°C° 0.1 mm 3 m/S 753 mmHg 66%
17:00 +17°C° 0.1 mm 2 m/S 753 mmHg 71%
18:00 +16°C° 0.1 mm 2 m/S 753 mmHg 76%
19:00 +15°C° 0.1 mm 2 m/S 753 mmHg 80%
20:00 +14°C° 0 mm 2 m/S 753 mmHg 83%
21:00 +13°C° 0 mm 2 m/S 753 mmHg 86%
22:00 +12°C° 0 mm 2 m/S 753 mmHg 88%
23:00 +12°C° 0 mm 1 m/S 753 mmHg 89%

13 Juli, Montag

Zeit Temperatur Niederschläge Wind Luftdruck Luftfeuchtigkeit
00:00 +12°C° 0 mm 1 m/S 753 mmHg 89%
01:00 +11°C° 0 mm 1 m/S 753 mmHg 89%
02:00 +11°C° 0 mm 1 m/S 752 mmHg 90%
03:00 +10°C° 0 mm 2 m/S 752 mmHg 91%
04:00 +10°C° 0 mm 2 m/S 752 mmHg 92%
05:00 +12°C° 0 mm 2 m/S 752 mmHg 87%
06:00 +13°C° 0 mm 2 m/S 752 mmHg 82%
07:00 +14°C° 0 mm 2 m/S 752 mmHg 77%
08:00 +16°C° 0 mm 2 m/S 751 mmHg 70%
09:00 +17°C° 0 mm 2 m/S 751 mmHg 62%
10:00 +19°C° 0 mm 2 m/S 751 mmHg 55%
11:00 +19°C° 0 mm 3 m/S 751 mmHg 55%
12:00 +20°C° 0 mm 3 m/S 751 mmHg 54%
13:00 +20°C° 0 mm 3 m/S 750 mmHg 53%
14:00 +20°C° 0.2 mm 3 m/S 750 mmHg 56%
15:00 +20°C° 0.2 mm 4 m/S 750 mmHg 59%
16:00 +20°C° 0.2 mm 4 m/S 750 mmHg 62%
17:00 +19°C° 0.1 mm 4 m/S 749 mmHg 66%
18:00 +17°C° 0.1 mm 3 m/S 749 mmHg 71%
19:00 +16°C° 0.1 mm 3 m/S 749 mmHg 76%
20:00 +14°C° 0 mm 3 m/S 749 mmHg 81%
21:00 +13°C° 0 mm 3 m/S 749 mmHg 86%
22:00 +12°C° 0 mm 3 m/S 750 mmHg 91%
23:00 +11°C° 0 mm 3 m/S 749 mmHg 91%

14 Juli, Dienstag

Zeit Temperatur Niederschläge Wind Luftdruck Luftfeuchtigkeit
00:00 +11°C° 0 mm 3 m/S 749 mmHg 92%
01:00 +11°C° 0 mm 3 m/S 749 mmHg 93%
02:00 +10°C° 0 mm 3 m/S 749 mmHg 93%
03:00 +10°C° 0 mm 3 m/S 749 mmHg 93%
04:00 +10°C° 0 mm 3 m/S 749 mmHg 93%
05:00 +12°C° 0 mm 3 m/S 749 mmHg 87%
06:00 +13°C° 0 mm 3 m/S 749 mmHg 82%
07:00 +15°C° 0 mm 4 m/S 749 mmHg 76%
08:00 +17°C° 0 mm 4 m/S 749 mmHg 70%
09:00 +19°C° 0 mm 4 m/S 749 mmHg 64%
10:00 +20°C° 0 mm 4 m/S 749 mmHg 57%
11:00 +20°C° 0 mm 4 m/S 749 mmHg 56%
12:00 +21°C° 0 mm 5 m/S 748 mmHg 55%
13:00 +22°C° 0 mm 5 m/S 748 mmHg 54%
14:00 +21°C° 0.1 mm 5 m/S 748 mmHg 58%
15:00 +20°C° 0.1 mm 5 m/S 748 mmHg 63%
16:00 +20°C° 0.1 mm 5 m/S 748 mmHg 67%
17:00 +19°C° 0.1 mm 4 m/S 748 mmHg 72%
18:00 +18°C° 0.1 mm 4 m/S 748 mmHg 77%
19:00 +17°C° 0.1 mm 3 m/S 748 mmHg 82%
20:00 +16°C° 0 mm 3 m/S 748 mmHg 85%
21:00 +14°C° 0 mm 3 m/S 748 mmHg 88%
22:00 +12°C° 0 mm 3 m/S 748 mmHg 92%
23:00 +12°C° 0 mm 3 m/S 748 mmHg 91%
Mehr zeigen